Flag for Canada Weather past 2 weeks in Abbotsford, British Columbia, Canada

Now
63 °F

Broken clouds.


Feels Like: 63 °F
Forecast: 54 / 72 °F
Wind: 6 mph from East

Location: Abbotsford

Current Time: Jul 22, 2014 at 4:37:55 PM

Latest Report: Jul 22, 2014 at 9:00 AM


Visibility: 30 mi

Pressure: 30.04 "Hg

Humidity: 73%

Dew point: 54 °F

Location of AbbotsfordLocation

Historic Weather in Abbotsford — Graph

°F

Abbotsford temperature yesterday

Maximum temperature yesterday: 73 °F (at 3:00 PM)
Minimum temperature yesterday: 54 °F (at 1:00 AM)
Average temperature yesterday: 63 °F

Past Weeks' High & Low Weather Summary

 TemperatureHumidityPressure
High91 °F (Jul 13, 4:00 PM)100% (Jul 8, 3:00 AM)30.14 "Hg (Jul 8, 3:00 AM)
Low50 °F (Jul 22, 4:00 AM)41% (Jul 13, 4:00 PM)29.88 "Hg (Jul 10, 7:00 PM)
Average68 °F70%30.00 "Hg
* Reported Jul 7 9:00 AM — Jul 22 9:00 AM, Abbotsford, Weather by CustomWeather, © 2014

Note: Actual official high and low records may vary slightly from our data, if they occured in-between our weather recording intervals... More about our weather records

Advertising

Abbotsford weather history for previous 24 hours

 ConditionsComfort  
Time TempWeatherWind HumidityBarometerVisibility
9:00 AM
Jul 22
63 °FBroken clouds.6 mph73%30.04 "Hg30 mi
8:00 AM61 °FScattered clouds.3 mph83%30.04 "Hg30 mi
7:00 AM55 °FScattered clouds.No wind94%30.03 "Hg30 mi
6:00 AM52 °FPartly cloudy.2 mph94%30.02 "Hg30 mi
5:00 AM50 °FPartly cloudy.3 mph94%30.02 "Hg30 mi
4:00 AM50 °FClear.5 mph94%30.01 "Hg15 mi
3:00 AM55 °FClear.3 mph88%30.01 "Hg15 mi
2:00 AM54 °FClear.6 mph88%30.01 "Hg15 mi
1:00 AM57 °FClear.3 mph77%30.01 "Hg15 mi
12:00 AM59 °FClear.2 mph77%30.00 "Hg15 mi
11:00 PM
Jul 21
61 °FClear.No wind72%29.99 "Hg15 mi
10:00 PM64 °FSunny.No wind64%29.99 "Hg15 mi
9:00 PM64 °FPassing clouds.7 mph64%29.98 "Hg30 mi
8:00 PM70 °FPassing clouds.8 mph53%29.98 "Hg30 mi
7:00 PM72 °FScattered clouds.6 mph50%29.98 "Hg25 mi
6:00 PM72 °FPartly sunny.8 mph50%29.98 "Hg25 mi
5:00 PM72 °FPartly sunny.12 mph50%29.99 "Hg20 mi
4:00 PM72 °FPartly sunny.13 mph50%30.00 "Hg20 mi
Weather by CustomWeather, © 2014

See weather overviewHow to use our weather pages